Tracking 17925 objects as of 21-January-2017
HD Live streaming from Space Station
objects crossing your sky now

COSMOS 1596

Track COSMOS 1596 now!
COSMOS 1596 is classified as:


NORAD ID: 15267
Int'l Code: 1984-096A
Perigee: 4,751.6 km
Apogee: 35,726.8 km
Inclination: 68.2 °
Period: 720.0 minutes
Semi major axis: 26610 km
RCS: 8.4284 m2 (large)
Launch date: September 7, 1984
Source: Commonwealth of Independent States (former USSR) (CIS)
Launch site: PLESETSK MISSILE AND SPACE COMPLEX (PKMTR)
Your satellite tracking list
Your tracking list is empty





NASA's NSSDC Master Catalog

Two Line Element Set (TLE):
1 15267U 84096A   17020.92017024 -.00000819 +00000-0 +62154+0 0  9999
2 15267 068.1850 011.6520 5820169 092.9613 359.5630 02.00842961237125
Source of the keplerian elements: AFSPC